Overview Statistics Trail Chart Weather Telemetry Raw packets
 

This is the latest recevied weather packets stored in our database for station/object K5FEP. If no packets are shown the sender has not sent any weather packets the latest 10 day(s).

<< 106 107 108 109 110 111 112 >>
Time Temp. Humidity Pressure Rain* Wind** Luminosity Snow
1787837882 27.22° C 74% 1016 hPa 0 mm - 260 W/m² -
1787837581 26.67° C 75% 1016 hPa 0 mm - 249 W/m² -
1787837281 27.22° C 73% 1015.9 hPa 0 mm - 255 W/m² -
1787836976 27.22° C 73% 1015.9 hPa 0 mm - 427 W/m² -
1787836671 26.67° C 75% 1015.8 hPa 0 mm - 292 W/m² -
1787836371 26.11° C 78% 1015.9 hPa 0 mm - 342 W/m² -
1787836066 25.56° C 78% 1015.7 hPa 0 mm - 387 W/m² -
1787835762 25.56° C 80% 1015.8 hPa 0 mm - 219 W/m² -
1787835462 25° C 81% 1015.6 hPa 0 mm - 215 W/m² -
1787835157 25° C 81% 1016 hPa 0 mm - 177 W/m² -
1787834856 25° C 81% 1016 hPa 0 mm - 156 W/m² -
1787834551 25° C 81% 1015.8 hPa 0 mm - 160 W/m² -
1787834246 24.44° C 82% 1016 hPa 0 mm - 144 W/m² -
1787833942 24.44° C 83% 1015.9 hPa 0 mm - 179 W/m² -
1787833637 24.44° C 84% 1015.9 hPa 0 mm - 173 W/m² -
1787833333 23.89° C 85% 1015.9 hPa 0 mm - 145 W/m² -
1787833028 23.89° C 85% 1016 hPa 0 mm - 136 W/m² -
1787832724 23.33° C 86% 1016 hPa 0 mm - 110 W/m² -
1787832423 23.33° C 86% 1015.9 hPa 0 mm - 92 W/m² -
1787832123 23.33° C 86% 1016.1 hPa 0 mm - 79 W/m² -
1787831821 22.78° C 87% 1015.7 hPa 0 mm - 72 W/m² -
1787831516 22.78° C 87% 1016.1 hPa 0 mm - 79 W/m² -
1787831214 22.78° C 88% 1015.8 hPa 0 mm - 76 W/m² -
1787830911 22.22° C 88% 1015.9 hPa 0 mm - 69 W/m² -
1787830610 22.22° C 89% 1015.7 hPa 0 mm - 59 W/m² -

* Rain latest hour (hover to see other rain measurements)
** Current wind speed in m/s (hover to see current wind gust speed)